Flag for Uruguay Weather past 2 weeks in Minas, Uruguay

Now
48 °F

Partly sunny.


Feels Like: 42 °F
Forecast: 32 / 49 °F
Wind: 18 mph from Southwest

Location: Capitan Corbeta

Current Time: Jul 26, 2014 at 2:50:56 PM

Latest Report: Jul 26, 2014 at 2:00 PM


Visibility: N/A

Pressure: 30.21 "Hg

Humidity: 50%

Dew point: 30 °F

Location of MinasLocation

Historic Weather in Minas — Graph

°F

Minas temperature yesterday

Maximum temperature yesterday: 54 °F (at 1:00 PM)
Minimum temperature yesterday: 36 °F (at 12:00 AM)
Average temperature yesterday: 45 °F

Past Weeks' High & Low Weather Summary

 TemperatureHumidityPressure
High70 °F (Jul 21, 1:00 PM)100% (Jul 19, 10:00 PM)30.33 "Hg (Jul 19, 10:00 PM)
Low36 °F (Jul 25, 12:00 AM)43% (Jul 20, 4:00 PM)29.77 "Hg (Jul 22, 1:00 PM)
Average54 °F79%30.08 "Hg
* Reported Jul 11 1:00 PM — Jul 26 1:00 PM, Minas, Weather by CustomWeather, © 2014

Note: Actual official high and low records may vary slightly from our data, if they occured in-between our weather recording intervals... More about our weather records

Advertising

Minas weather history for previous 24 hours

 ConditionsComfort  
Time TempWeatherWind HumidityBarometerVisibility
1:00 PM
Jul 26
48 °FPartly sunny.12 mph50%30.21 "HgN/A
12:00 PM48 °FPartly sunny.14 mph50%30.21 "HgN/A
11:00 AM48 °FPartly sunny.12 mph54%30.21 "HgN/A
10:00 AM46 °FPartly sunny.12 mph57%30.18 "HgN/A
8:00 AM45 °FPartly sunny.17 mph71%30.12 "HgN/A
7:00 AM46 °FSprinkles. Broken clouds.14 mph76%30.09 "Hg6 mi
6:00 AM46 °FClear.14 mph71%30.09 "Hg10 mi
5:00 AM43 °FClear.9 mph71%30.07 "Hg10 mi
4:00 AM45 °FClear.9 mph71%30.07 "Hg10 mi
3:00 AM46 °FClear.12 mph66%30.07 "Hg10 mi
2:00 AM46 °FClear.8 mph62%30.07 "Hg10 mi
1:00 AM46 °FClear.7 mph62%30.07 "Hg10 mi
12:00 AM48 °FPassing clouds.9 mph62%30.07 "HgN/A
11:00 PM
Jul 25
46 °FClear.9 mph66%30.04 "Hg10 mi
10:00 PM45 °FClear.6 mph66%30.07 "Hg10 mi
9:00 PM46 °FClear.6 mph66%30.07 "Hg10 mi
8:00 PM46 °FOvercast.6 mph66%30.07 "HgN/A
7:00 PM46 °FClear.6 mph62%30.07 "Hg10 mi
6:00 PM48 °FClear.6 mph58%30.04 "Hg10 mi
5:00 PM52 °FClear.14 mph47%30.01 "Hg10 mi
4:00 PM54 °FScattered clouds.17 mph44%30.04 "HgN/A
3:00 PM54 °FSunny.18 mph44%30.04 "Hg10 mi
2:00 PM54 °FSunny.21 mph44%30.04 "Hg10 mi
Weather by CustomWeather, © 2014

See weather overviewHow to use our weather pages